Location: Allonne
(49.4086°N, 2.1143°E)
Time: 09:58:23
(UTC+00:00)

Cosmos 1726 Rocket - Pass Details

Date: 03 February 2023
Orbit: 602 x 627 km, 82.5° (Epoch: 23 March)

Event Time Altitude Azimuth Distance (km) Brightness Sun altitude
Rises 17:22:37 0° 359° (N) 2,869 6.8 -5.7°
Reaches altitude 10° 17:25:09 10° 12° (NNE) 1,959 5.8 -6.1°
Maximum altitude 17:28:48 26° 70° (ENE) 1,207 4.5 -6.7°
Drops below altitude 10° 17:32:25 10° 127° (SE) 1,948 5.8 -7.2°
Sets 17:34:55 0° 140° (SE) 2,848 6.7 -7.6°
